Погода в Сфаксе

Тунис     34°44′23″N   10°45′36″E
темп.,
°C
ветер,
м/с
пор.,
м/с
влажн.,
%
обл.,
%
осадки,
мм/ч
давл.,
гПа
погр.,
м
25 июля, вс
вс2501:00+28ююв57580 0.0 1014292
04:00+27ю56610 0.0 1013295
07:00+28ю46590 0.0 1013386
10:00+30ю55500 0.0 1014521
13:00+32ююв55380 0.0 1013516
16:00+33юв55330 0.0 1012423
19:00+30юв67480 0.0 1011300
22:00+29юв610590 0.0 1013326
26 июля, пн
пн2601:00+28ююв69640 0.0 1013353
04:00+27ююв47670 0.0 1012275
07:00+28юв46650 0.0 1013415
10:00+30юв55530 0.0 1014465
13:00+32юв55410 0.0 1013462
16:00+31вюв78470 0.0 1012447
19:00+29вюв811540 0.0 1013383
22:00+28вюв811630 0.0 1014388
27 июля, вт
вт2701:00+27юв69660 0.0 1014402
04:00+27юв57660 0.0 1014353
07:00+28вюв56630 0.0 1015484
10:00+29вюв56540 0.0 1016583
13:00+30вюв67480 0.0 1016629
16:00+30вюв78450 0.0 1014572
19:00+29в69490 0.0 1014452
22:00+28вюв610600 0.0 1015435
28 июля, ср
ср2801:00+27юв57630 0.0 1016388
04:00+27юв35640 0.0 1015357
07:00+27юв45630 0.0 1015485
10:00+29юв45540 0.0 1016638
13:00+30юв44450 0.0 1016682
16:00+31вюв54420 0.0 1014627
19:00+29в44490 0.0 1015445
22:00+28вюв44540 0.0 1015281
29 июля, чт
чт2901:00+27ююв34530 0.0 1015252
04:00+27ю34560 0.0 1014222
07:00+27ююз34560 0.0 1015306
10:00+30ю45450 0.0 1016503
13:00+32ююв55370 0.0 1015518
16:00+33ююв44330 0.0 1014416
19:00+31юв45410 0.0 1013223
22:00+29юв46510 0.0 1014174